Weather reports worldwide

Advertisment
Badajoz/Talavera La Real, Spain (8330): temperature & dewpoint: 14.01.2021 15:00:00 - 20.01.2021 15:00:00 (CET)Badajoz/Talavera La Real, Spain (8330): wind speed: 14.01.2021 15:00:00 - 20.01.2021 15:00:00 (CET)Badajoz/Talavera La Real, Spain (8330): wind direction: 14.01.2021 15:00:00 - 20.01.2021 15:00:00 (CET)Badajoz/Talavera La Real, Spain (8330): reduced air pressure: 14.01.2021 15:00:00 - 20.01.2021 15:00:00 (CET)Badajoz/Talavera La Real, Spain (8330): visibility: 14.01.2021 15:00:00 - 20.01.2021 15:00:00 (CET)Badajoz/Talavera La Real, Spain (8330): precipitation: 14.01.2021 15:00:00 - 20.01.2021 15:00:00 (CET)
Date & Time tt [°C] td [°C] ff [km/h] ff [kn] dd ppp [hPa] vv [km] rr [mm]
20.01.2021 15:00:00 - - - - - - - -
20.01.2021 14:00:00 15,5 10,5 16 9 SSW 1009,5 - 0,0
20.01.2021 13:00:00 14,8 10,8 18 10 SSW 1010,8 30 -
20.01.2021 12:00:00 13,4 10,9 16 9 SSW 1011,3 - 0,0
20.01.2021 11:00:00 11,9 9,6 15 8 SSW 1011,7 - 0,0
20.01.2021 10:00:00 10,4 8,0 15 8 SSW 1010,6 40 -
20.01.2021 09:00:00 10,0 8,6 13 7 S 1010,9 - 5,0
20.01.2021 08:00:00 10,6 9,2 9 5 S 1012,3 - 8,0
20.01.2021 07:00:00 10,8 8,9 11 6 S 1012,3 3,0 -
20.01.2021 06:00:00 11,8 7,9 15 8 SSW 1012,7 - 0,0
20.01.2021 05:00:00 12,0 6,9 16 9 SSE 1012,1 - 0,0
20.01.2021 04:00:00 11,7 6,8 13 7 S 1014,0 - -
20.01.2021 03:00:00 11,5 6,6 15 8 S 1015,6 - 0,0
20.01.2021 02:00:00 11,0 6,7 9 5 S 1017,0 - 0,0
20.01.2021 01:00:00 10,3 6,3 5 3 SE 1017,9 - -
20.01.2021 00:00:00 10,7 6,6 8 4 SE 1018,6 - 0,0
19.01.2021 23:00:00 11,1 6,0 11 6 S 1019,4 - 0,0
19.01.2021 22:00:00 10,5 6,1 4 2 SSE 1020,2 - -
19.01.2021 21:00:00 11,2 5,7 9 5 SSE 1020,3 - 0,0
19.01.2021 20:00:00 11,3 5,8 5 3 S 1020,7 - 0,0
19.01.2021 19:00:00 11,5 5,4 9 5 S 1021,1 10 -
19.01.2021 18:00:00 11,5 6,8 2 1 W 1021,7 - 0,0
19.01.2021 17:00:00 12,3 7,0 2 1 W 1022,1 - 0,0
19.01.2021 16:00:00 12,6 6,6 4 2 ENE 1022,2 10 -
19.01.2021 15:00:00 11,9 6,0 8 4 ENE 1022,9 - 0,0
19.01.2021 14:00:00 10,6 5,4 5 3 E 1024,2 - 0,0
19.01.2021 13:00:00 7,7 3,9 4 2 NNE 1026,1 9 -
19.01.2021 12:00:00 4,7 2,4 2 1 NE 1027,2 - 0,0
19.01.2021 11:00:00 2,5 1,3 2 1 N 1027,5 - 0,0
19.01.2021 10:00:00 -0,9 -1,6 2 1 NE 1027,1 8 -
19.01.2021 09:00:00 -2,4 -3,1 2 1 NW 1027,2 - 0,0
19.01.2021 08:00:00 -2,3 -3,1 2 1 NW 1027,0 - 0,0
19.01.2021 07:00:00 -2,2 -3,2 2 1 ENE 1027,1 7 -
19.01.2021 06:00:00 -1,9 -2,9 2 1 S 1026,8 - 0,0
19.01.2021 05:00:00 -1,5 -2,5 2 1 ESE 1027,1 - 0,0
19.01.2021 04:00:00 -0,8 -1,8 4 2 SE 1027,3 - -
19.01.2021 03:00:00 -0,1 -1,4 2 1 NW 1027,5 - 0,0
19.01.2021 02:00:00 0,2 -1,1 2 1 SSW 1027,7 - 0,0
19.01.2021 01:00:00 0,4 -1,2 5 3 N 1027,7 - -
19.01.2021 00:00:00 1,6 0,0 4 2 S 1027,8 - 0,0
18.01.2021 23:00:00 2,1 0,0 2 1 NNW 1027,7 - 0,0
18.01.2021 22:00:00 3,0 -0,3 0 0 N 1027,4 - -
18.01.2021 21:00:00 5,0 0,2 4 2 SE 1027,0 - 0,0
18.01.2021 20:00:00 7,5 0,9 2 1 WSW 1026,6 - 0,0
18.01.2021 19:00:00 10,3 1,1 4 2 SSW 1026,1 20 -
18.01.2021 18:00:00 15,1 0,9 2 1 WSW 1025,5 - 0,0
18.01.2021 17:00:00 16,5 -0,7 2 1 NE 1025,3 - 0,0
18.01.2021 16:00:00 15,7 0,7 5 3 E 1025,5 15 -
18.01.2021 15:00:00 14,2 3,0 8 4 ENE 1025,9 - 0,0
18.01.2021 14:00:00 12,6 3,0 9 5 ENE 1026,9 - 0,0
18.01.2021 13:00:00 10,2 3,7 9 5 ENE 1028,1 15 -
18.01.2021 12:00:00 6,6 3,2 5 3 E 1029,1 - 0,0
18.01.2021 11:00:00 2,7 1,8 8 4 ENE 1029,5 - 0,0
18.01.2021 10:00:00 -0,8 -1,1 2 1 E 1029,3 9 -
18.01.2021 09:00:00 -2,8 -3,3 2 1 E 1029,4 - 0,0
18.01.2021 08:00:00 -2,9 -3,4 2 1 NNE 1029,1 - 0,0
18.01.2021 07:00:00 -2,3 -3,0 4 2 E 1028,7 4,0 -
18.01.2021 06:00:00 -2,3 -3,0 2 1 N 1028,6 - 0,0
18.01.2021 05:00:00 -1,8 -2,5 2 1 ESE 1028,5 - 0,0
18.01.2021 04:00:00 -1,6 -2,4 4 2 E 1029,0 - -
18.01.2021 03:00:00 -0,7 -1,4 2 1 S 1029,1 - 0,0
18.01.2021 02:00:00 -0,5 -1,5 2 1 NNW 1029,2 - 0,0
18.01.2021 01:00:00 0,5 -0,5 4 2 SE 1029,3 - -
18.01.2021 00:00:00 1,5 0,3 4 2 S 1029,4 - 0,0
17.01.2021 23:00:00 1,9 0,3 4 2 WNW 1029,1 - 0,0
17.01.2021 22:00:00 3,2 1,6 4 2 E 1028,9 - -
17.01.2021 21:00:00 4,8 2,3 4 2 E 1028,5 - 0,0
17.01.2021 20:00:00 6,6 3,0 2 1 W 1028,6 - 0,0
17.01.2021 19:00:00 9,7 4,7 4 2 WSW 1028,2 20 -
17.01.2021 18:00:00 13,8 5,4 4 2 S 1027,9 - 0,0
17.01.2021 17:00:00 15,0 5,2 4 2 E 1027,9 - 0,0
17.01.2021 16:00:00 14,4 5,5 4 2 NNE 1028,3 10 -
17.01.2021 15:00:00 13,0 4,9 4 2 E 1028,8 - 0,0
17.01.2021 14:00:00 10,8 5,5 5 3 NE 1029,9 - 0,0
17.01.2021 13:00:00 7,9 3,9 8 4 ENE 1031,3 10 -
17.01.2021 12:00:00 5,1 2,8 5 3 NE 1032,2 - 0,0
17.01.2021 11:00:00 2,4 1,7 11 6 E 1032,4 - 0,0
17.01.2021 10:00:00 -1,2 -1,6 2 1 SSE 1032,4 - -
17.01.2021 09:00:00 -2,8 -3,3 2 1 WNW 1032,0 - 0,0
17.01.2021 08:00:00 -2,8 -3,3 2 1 WNW 1031,4 - 0,0
17.01.2021 07:00:00 -2,9 -3,6 4 2 WNW 1031,2 0,2 -
17.01.2021 06:00:00 -2,2 -2,9 2 1 ESE 1030,9 - 0,0
17.01.2021 05:00:00 -2,2 -2,9 5 3 NNW 1031,0 - 0,0
17.01.2021 04:00:00 -1,6 -2,3 4 2 ESE 1031,0 - -
17.01.2021 03:00:00 -1,1 -1,9 4 2 ESE 1031,1 - 0,0
17.01.2021 02:00:00 -0,4 -1,2 2 1 SSW 1031,5 - 0,0
17.01.2021 01:00:00 0,0 -1,1 2 1 WNW 1031,7 - -
17.01.2021 00:00:00 0,5 -1,0 0 0 N 1031,8 - 0,0
16.01.2021 23:00:00 2,4 1,2 4 2 S 1031,6 - 0,0
16.01.2021 22:00:00 3,7 1,9 0 0 N 1031,1 - -
16.01.2021 21:00:00 4,4 2,3 2 1 W 1030,5 - 0,0
16.01.2021 20:00:00 6,4 3,0 2 1 WNW 1030,1 - 0,0
16.01.2021 19:00:00 9,4 4,2 2 1 SW 1029,4 15 -
16.01.2021 18:00:00 12,7 5,8 2 1 NNE 1028,7 - 0,0
16.01.2021 17:00:00 13,6 3,1 5 3 NE 1028,2 - 0,0
16.01.2021 16:00:00 13,0 4,7 5 3 NE 1028,4 15 -
16.01.2021 15:00:00 11,2 4,9 4 2 ENE 1028,9 - 0,0
16.01.2021 14:00:00 7,3 5,8 2 1 NNE 1030,0 - 0,0
16.01.2021 13:00:00 2,9 2,6 2 1 NNE 1031,2 1,5 -
16.01.2021 12:00:00 0,3 0,0 2 1 NE 1031,9 - 0,0
16.01.2021 11:00:00 -1,7 -2,1 4 2 ESE 1031,7 - 0,0
16.01.2021 10:00:00 -2,7 -3,1 4 2 NE 1031,1 0,2 -
16.01.2021 09:00:00 -2,7 -3,1 5 3 NNW 1030,6 - 0,0
16.01.2021 08:00:00 -2,0 -2,4 2 1 ESE 1030,4 - 0,0
16.01.2021 07:00:00 -2,1 -2,5 5 3 ESE 1030,3 0,1 -
16.01.2021 06:00:00 -2,0 -2,4 4 2 ENE 1030,0 - 0,0
16.01.2021 05:00:00 -1,8 -2,4 5 3 ESE 1029,9 - 0,0
16.01.2021 04:00:00 -1,4 -2,0 2 1 E 1029,9 - -
16.01.2021 03:00:00 -1,1 -1,7 2 1 SSW 1029,6 - 0,0
16.01.2021 02:00:00 -1,1 -1,7 2 1 W 1029,5 - 0,0
16.01.2021 01:00:00 -0,3 -1,1 4 2 WNW 1030,0 - -
16.01.2021 00:00:00 -0,1 -0,8 5 3 ESE 1029,8 - 0,0
15.01.2021 23:00:00 0,3 -0,7 5 3 E 1029,4 - 0,0
15.01.2021 22:00:00 1,7 0,7 2 1 S 1029,1 - -
15.01.2021 21:00:00 2,7 1,4 4 2 E 1028,9 - 0,0
15.01.2021 20:00:00 4,1 2,0 2 1 E 1028,5 - 0,0
15.01.2021 19:00:00 6,4 3,7 5 3 SSE 1028,1 9 -
15.01.2021 18:00:00 9,2 4,4 4 2 S 1028,0 - 0,0
15.01.2021 17:00:00 10,6 3,1 4 2 S 1027,9 - 0,0
15.01.2021 16:00:00 8,8 5,0 8 4 S 1028,2 15 -
15.01.2021 15:00:00 4,1 3,8 4 2 S 1029,2 - 0,0
15.01.2021 14:00:00 1,5 1,2 4 2 W 1030,4 - 0,0
15.01.2021 13:00:00 0,4 0,1 4 2 N 1031,1 - -
15.01.2021 12:00:00 -0,4 -0,8 8 4 NNE 1031,9 - 0,0
15.01.2021 11:00:00 -0,8 -1,2 4 2 E 1031,3 - 0,0
15.01.2021 10:00:00 -1,4 -1,8 4 2 S 1031,1 0,1 -
15.01.2021 09:00:00 -2,0 -2,4 2 1 E 1030,9 - 0,0
15.01.2021 08:00:00 -2,4 -2,8 2 1 SSE 1030,7 - 0,0
15.01.2021 07:00:00 -3,0 -3,5 4 2 ESE 1030,3 0,1 -
15.01.2021 06:00:00 -3,1 -3,6 2 1 N 1030,4 - 0,0
15.01.2021 05:00:00 -2,8 -3,3 2 1 W 1030,6 - 0,0
15.01.2021 04:00:00 -2,8 -3,3 4 2 W 1030,4 - -
15.01.2021 03:00:00 -2,8 -3,5 2 1 ESE 1029,9 - 0,0
15.01.2021 02:00:00 -2,2 -3,2 2 1 N 1030,0 - 0,0
15.01.2021 01:00:00 -1,2 -2,0 4 2 ESE 1029,8 - -
15.01.2021 00:00:00 0,0 -0,9 2 1 W 1029,7 - 0,0
14.01.2021 23:00:00 0,7 -0,3 4 2 W 1029,4 - 0,0
14.01.2021 22:00:00 1,5 0,2 2 1 NNE 1029,1 - -
14.01.2021 21:00:00 2,6 1,0 4 2 ESE 1028,9 - 0,0
14.01.2021 20:00:00 4,1 2,3 8 4 ESE 1028,5 - 0,0
14.01.2021 19:00:00 5,8 3,1 5 3 ESE 1028,4 10 -
14.01.2021 18:00:00 9,1 4,7 4 2 E 1028,0 - 0,0
14.01.2021 17:00:00 9,3 4,3 2 1 NE 1028,0 - 0,0
14.01.2021 16:00:00 7,7 4,1 4 2 N 1028,1 15 -
14.01.2021 15:00:00 5,4 4,2 4 2 WNW 1028,7 - 0,0

tt = temperature
td = dewpoint
ff = wind speed
dd = wind direction
ppp = reduced air pressure
vv = visibility
rr = precipitation

Next stations